Location: Black Swamp Observatory
(41.3920°N, 84.1250°W)
Time: 14:49:10
(UTC-04:00)

ISS - Visible Passes

Search period start: 24 March 2023 00:00
Search period end: 03 April 2023 00:00
Orbit: 414 x 422 km, 51.6° (Epoch: 24 March)

Date Brightness Start Highest point End Pass type
(mag) Time Alt. Az. Time Alt. Az. Time Alt. Az.
24 Mar -1.3 21:31:33 10° NNW 21:33:31 15° N 21:34:30 13° NNE visible
25 Mar -1.2 20:43:27 10° NW 20:45:20 14° N 20:47:14 10° NE visible
25 Mar -1.0 22:20:16 10° NW 22:21:26 17° NNW 22:21:26 17° NNW visible
26 Mar -1.7 21:32:26 10° NNW 21:34:53 19° NNE 21:35:25 18° NNE visible
27 Mar -1.4 20:44:30 10° NNW 20:46:40 16° N 20:48:51 10° NE visible
27 Mar -1.3 22:20:52 10° NW 22:22:18 22° NNW 22:22:18 22° NNW visible
28 Mar -2.5 21:32:58 10° NW 21:35:58 30° NNE 21:36:14 30° NE visible
29 Mar -2.0 20:45:02 10° NW 20:47:47 23° NNE 20:50:11 12° ENE visible
29 Mar -1.6 22:21:29 10° WNW 22:23:06 26° WNW 22:23:06 26° WNW visible
30 Mar -3.8 21:33:24 10° NW 21:36:45 68° NNE 21:37:04 62° ENE visible
31 Mar -3.1 20:45:22 10° NW 20:48:34 42° NNE 20:51:03 15° E visible
31 Mar -1.3 22:22:26 10° WNW 22:23:59 19° WSW 22:23:59 19° WSW visible
01 Apr -2.9 21:33:59 10° WNW 21:37:09 41° SW 21:38:00 33° S visible
02 Apr -3.7 20:45:41 10° WNW 20:49:02 74° SW 20:52:04 12° SE visible
